When you browse on this site, cookies collect data to enhance your experience and personalize the content and advertising you see.
Visit our Privacy Policy to learn more. By continuing to use the site, you agree to this use of cookies and data.
  • en Suisse
  • Liste des pays
  • À 7 jours
  • Température de l'eau
  • Carte satellitaire
  • Carte météo
  • Widgets météo
  • user-avatar
    Se connecter

    Météo par heure à Ludwinow

    Ce jour, 25 Juin, Mardi

    Heure Température Précipitation Vent Pression Humidité
    00:00 +18°C° 0 mm 2 m/s 751 mmHg 81%
    01:00 +18°C° 0 mm 2 m/s 751 mmHg 84%
    02:00 +18°C° 0 mm 2 m/s 751 mmHg 84%
    03:00 +17°C° 0 mm 2 m/s 751 mmHg 84%
    04:00 +17°C° 0 mm 2 m/s 750 mmHg 85%
    05:00 +19°C° 0 mm 3 m/s 751 mmHg 81%
    06:00 +20°C° 0 mm 3 m/s 751 mmHg 77%
    07:00 +22°C° 0 mm 4 m/s 751 mmHg 73%
    08:00 +25°C° 0 mm 4 m/s 751 mmHg 69%
    09:00 +26°C° 0 mm 4 m/s 751 mmHg 64%
    10:00 +28°C° 0 mm 4 m/s 751 mmHg 59%
    11:00 +29°C° 0 mm 4 m/s 751 mmHg 58%
    12:00 +30°C° 0 mm 4 m/s 751 mmHg 56%
    13:00 +32°C° 0 mm 4 m/s 751 mmHg 55%
    14:00 +32°C° 0 mm 4 m/s 751 mmHg 55%
    15:00 +32°C° 0 mm 4 m/s 750 mmHg 55%
    16:00 +32°C° 0 mm 4 m/s 750 mmHg 56%
    17:00 +30°C° 0 mm 4 m/s 750 mmHg 62%
    18:00 +29°C° 0 mm 3 m/s 750 mmHg 68%
    19:00 +27°C° 0 mm 3 m/s 750 mmHg 75%
    20:00 +26°C° 0 mm 3 m/s 750 mmHg 80%
    21:00 +24°C° 0 mm 3 m/s 750 mmHg 85%
    22:00 +22°C° 0 mm 3 m/s 750 mmHg 91%
    23:00 +22°C° 0 mm 3 m/s 750 mmHg 92%

    Demain, 26 Juin, Mercredi

    Heure Température Précipitation Vent Pression Humidité
    00:00 +21°C° 0 mm 3 m/s 750 mmHg 94%
    01:00 +21°C° 0 mm 3 m/s 750 mmHg 95%
    02:00 +21°C° 0 mm 3 m/s 750 mmHg 95%
    03:00 +20°C° 0 mm 3 m/s 749 mmHg 96%
    04:00 +20°C° 0 mm 2 m/s 749 mmHg 96%
    05:00 +22°C° 0 mm 3 m/s 749 mmHg 89%
    06:00 +25°C° 0 mm 3 m/s 749 mmHg 83%
    07:00 +26°C° 0 mm 3 m/s 749 mmHg 77%
    08:00 +28°C° 0 mm 3 m/s 749 mmHg 69%
    09:00 +30°C° 0 mm 3 m/s 748 mmHg 61%
    10:00 +33°C° 0 mm 4 m/s 748 mmHg 53%
    11:00 +34°C° 0 mm 4 m/s 748 mmHg 50%
    12:00 +34°C° 0 mm 5 m/s 748 mmHg 46%
    13:00 +35°C° 0 mm 5 m/s 747 mmHg 42%
    14:00 +35°C° 0 mm 5 m/s 747 mmHg 43%
    15:00 +35°C° 0 mm 5 m/s 746 mmHg 44%
    16:00 +35°C° 0 mm 5 m/s 746 mmHg 45%
    17:00 +33°C° 0 mm 4 m/s 745 mmHg 52%
    18:00 +32°C° 0 mm 4 m/s 745 mmHg 58%
    19:00 +29°C° 0 mm 3 m/s 744 mmHg 64%
    20:00 +29°C° 0 mm 4 m/s 744 mmHg 65%
    21:00 +28°C° 0 mm 4 m/s 745 mmHg 66%
    22:00 +27°C° 0 mm 5 m/s 745 mmHg 67%
    23:00 +26°C° 1.1 mm 5 m/s 745 mmHg 75%

    Après-demain, 27 Juin, Jeudi

    Heure Température Précipitation Vent Pression Humidité
    00:00 +25°C° 1.1 mm 5 m/s 745 mmHg 84%
    01:00 +22°C° 1.1 mm 5 m/s 745 mmHg 93%
    02:00 +21°C° 0.1 mm 4 m/s 744 mmHg 93%
    03:00 +19°C° 0.1 mm 4 m/s 744 mmHg 93%
    04:00 +17°C° 0.1 mm 4 m/s 744 mmHg 92%
    05:00 +17°C° 0 mm 5 m/s 744 mmHg 88%
    06:00 +17°C° 0 mm 5 m/s 745 mmHg 83%
    07:00 +19°C° 0 mm 6 m/s 745 mmHg 79%
    08:00 +19°C° 0 mm 6 m/s 745 mmHg 76%
    09:00 +19°C° 0 mm 6 m/s 745 mmHg 74%
    10:00 +17°C° 0 mm 7 m/s 745 mmHg 71%
    11:00 +19°C° 0 mm 6 m/s 745 mmHg 70%
    12:00 +19°C° 0 mm 6 m/s 745 mmHg 69%
    13:00 +19°C° 0 mm 6 m/s 744 mmHg 67%
    14:00 +20°C° 0 mm 6 m/s 744 mmHg 65%
    15:00 +21°C° 0 mm 6 m/s 744 mmHg 62%
    16:00 +22°C° 0 mm 6 m/s 744 mmHg 60%
    17:00 +21°C° 0.1 mm 5 m/s 744 mmHg 66%
    18:00 +20°C° 0.1 mm 5 m/s 744 mmHg 72%
    19:00 +19°C° 0.1 mm 4 m/s 744 mmHg 78%
    20:00 +18°C° 0.1 mm 4 m/s 744 mmHg 83%
    21:00 +17°C° 0.1 mm 3 m/s 745 mmHg 87%
    22:00 +16°C° 0.1 mm 3 m/s 745 mmHg 92%
    23:00 +15°C° 0 mm 2 m/s 745 mmHg 93%

    28 Juin, Vendredi

    Heure Température Précipitation Vent Pression Humidité
    00:00 +15°C° 0 mm 2 m/s 745 mmHg 94%
    01:00 +14°C° 0 mm 2 m/s 745 mmHg 95%
    02:00 +14°C° 0 mm 2 m/s 745 mmHg 93%
    03:00 +13°C° 0 mm 2 m/s 745 mmHg 90%
    04:00 +13°C° 0 mm 1 m/s 745 mmHg 88%
    05:00 +15°C° 0 mm 2 m/s 745 mmHg 80%
    06:00 +16°C° 0 mm 2 m/s 745 mmHg 71%
    07:00 +18°C° 0 mm 2 m/s 745 mmHg 63%
    08:00 +18°C° 0.1 mm 3 m/s 745 mmHg 63%
    09:00 +19°C° 0.1 mm 3 m/s 745 mmHg 63%
    10:00 +20°C° 0.1 mm 4 m/s 745 mmHg 63%
    11:00 +20°C° 0.5 mm 4 m/s 745 mmHg 65%
    12:00 +21°C° 0.5 mm 4 m/s 745 mmHg 66%
    13:00 +21°C° 0.5 mm 5 m/s 744 mmHg 67%
    14:00 +21°C° 0.3 mm 6 m/s 744 mmHg 63%
    15:00 +21°C° 0.3 mm 7 m/s 744 mmHg 59%
    16:00 +22°C° 0.3 mm 7 m/s 744 mmHg 54%
    17:00 +20°C° 0 mm 7 m/s 745 mmHg 58%
    18:00 +19°C° 0 mm 6 m/s 745 mmHg 61%
    19:00 +17°C° 0 mm 5 m/s 745 mmHg 65%
    20:00 +15°C° 0 mm 5 m/s 746 mmHg 65%
    21:00 +14°C° 0 mm 4 m/s 746 mmHg 65%
    22:00 +12°C° 0 mm 4 m/s 747 mmHg 66%
    23:00 +12°C° 0 mm 3 m/s 747 mmHg 68%

    29 Juin, Samedi

    Heure Température Précipitation Vent Pression Humidité
    00:00 +11°C° 0 mm 3 m/s 747 mmHg 70%
    01:00 +12°C° 0 mm 2 m/s 747 mmHg 73%
    02:00 +10°C° 0 mm 2 m/s 747 mmHg 74%
    03:00 +10°C° 0 mm 2 m/s 747 mmHg 75%
    04:00 +10°C° 0 mm 2 m/s 747 mmHg 77%
    05:00 +12°C° 0 mm 2 m/s 747 mmHg 71%
    06:00 +14°C° 0 mm 2 m/s 747 mmHg 64%
    07:00 +16°C° 0 mm 3 m/s 747 mmHg 58%
    08:00 +17°C° 0 mm 3 m/s 747 mmHg 53%
    09:00 +19°C° 0 mm 3 m/s 747 mmHg 48%
    10:00 +20°C° 0 mm 3 m/s 747 mmHg 44%
    11:00 +21°C° 0 mm 4 m/s 747 mmHg 44%
    12:00 +22°C° 0 mm 4 m/s 747 mmHg 44%
    13:00 +22°C° 0 mm 5 m/s 747 mmHg 44%
    14:00 +22°C° 0 mm 5 m/s 746 mmHg 46%
    15:00 +22°C° 0 mm 5 m/s 746 mmHg 48%
    16:00 +22°C° 0 mm 5 m/s 746 mmHg 50%
    17:00 +22°C° 0 mm 4 m/s 746 mmHg 55%
    18:00 +21°C° 0 mm 3 m/s 746 mmHg 61%
    19:00 +20°C° 0 mm 2 m/s 746 mmHg 66%
    20:00 +19°C° 0 mm 2 m/s 746 mmHg 68%
    21:00 +18°C° 0 mm 2 m/s 746 mmHg 69%
    22:00 +16°C° 0 mm 2 m/s 746 mmHg 70%
    23:00 +16°C° 0 mm 2 m/s 746 mmHg 71%

    30 Juin, Dimanche

    Heure Température Précipitation Vent Pression Humidité
    00:00 +16°C° 0 mm 2 m/s 746 mmHg 72%
    01:00 +15°C° 0 mm 2 m/s 746 mmHg 73%
    02:00 +15°C° 0 mm 2 m/s 746 mmHg 73%
    03:00 +15°C° 0 mm 2 m/s 746 mmHg 73%
    04:00 +15°C° 0 mm 2 m/s 746 mmHg 74%
    05:00 +17°C° 0 mm 3 m/s 746 mmHg 69%
    06:00 +19°C° 0 mm 3 m/s 746 mmHg 65%
    07:00 +21°C° 0 mm 3 m/s 746 mmHg 60%
    08:00 +22°C° 0 mm 4 m/s 746 mmHg 55%
    09:00 +25°C° 0 mm 4 m/s 746 mmHg 50%
    10:00 +26°C° 0 mm 4 m/s 746 mmHg 45%
    11:00 +27°C° 0 mm 4 m/s 745 mmHg 43%
    12:00 +28°C° 0 mm 4 m/s 745 mmHg 41%
    13:00 +29°C° 0 mm 4 m/s 744 mmHg 39%
    14:00 +29°C° 0 mm 4 m/s 744 mmHg 40%
    15:00 +29°C° 0 mm 4 m/s 744 mmHg 42%
    16:00 +29°C° 0 mm 4 m/s 743 mmHg 43%
    17:00 +28°C° 0 mm 4 m/s 743 mmHg 50%
    18:00 +26°C° 0 mm 4 m/s 743 mmHg 56%
    19:00 +25°C° 0 mm 4 m/s 742 mmHg 63%
    20:00 +23°C° 0 mm 4 m/s 742 mmHg 65%
    21:00 +22°C° 0 mm 5 m/s 742 mmHg 66%
    22:00 +21°C° 0 mm 5 m/s 742 mmHg 68%
    23:00 +21°C° 0 mm 6 m/s 742 mmHg 69%
    Voir plus